Location: ??
(35.5653°N, 139.6194°E)
Time: 17:06:01
(UTC+00:00)

COBE Rocket - Pass Details

Date: 20 November 2019
Orbit: 679 x 783 km, 97.1° (Epoch: 10 December)

Event Time Altitude Azimuth Distance (km) Brightness Sun altitude
Rises 19:41:27 0° 171° (S) 3,249 7.5 -20.4°
Reaches altitude 10° 19:43:47 10° 173° (S) 2,319 6.7 -19.9°
Maximum altitude 19:48:54 76° 259° (W) 794 3.9 -18.9°
Drops below altitude 10° 19:53:58 10° 345° (NNW) 2,285 6.2 -17.9°
Enters shadow 19:55:58 - 347° (NNW) 3,083 6.9 -17.5°
